| time (UTC) | temp F | wind direction | speed MPH | gust MPH | rain 1hr in | rain 24hr in | rain mn in | humidity % | barometer mb |
| 20260510144549 | 55 | 45 | 0.0 | 2.0 | 0.00 | 0.00 | 0.00 | 81 | 1015.5 |
| 20260510143045 | 55 | 159 | 0.0 | 0.0 | 0.00 | 0.00 | 0.00 | 83 | 1015.4 |
| 20260510141549 | 54 | 59 | 0.0 | 1.0 | 0.00 | 0.00 | 0.00 | 83 | 1015.4 |
| 20260510140042 | 53 | 6 | 0.0 | 0.0 | 0.00 | 0.00 | 0.00 | 85 | 1015.5 |
| 20260510134542 | 53 | 338 | 0.0 | 0.0 | 0.00 | 0.00 | 0.00 | 86 | 1015.3 |
| 20260510133040 | 52 | 281 | 0.0 | 0.0 | 0.00 | 0.00 | 0.00 | 87 | 1015.2 |
| 20260510131539 | 51 | 328 | 0.0 | 0.0 | 0.00 | 0.00 | 0.00 | 89 | 1015.0 |
| 20260510130047 | 51 | 328 | 0.0 | 0.0 | 0.00 | 0.00 | 0.00 | 88 | 1015.1 |
| 20260510124555 | 51 | 328 | 0.0 | 0.0 | 0.00 | 0.00 | 0.00 | 88 | 1014.9 |
| 20260510123038 | 50 | 328 | 0.0 | 0.0 | 0.00 | 0.00 | 0.00 | 90 | 1015.1 |
| 20260510121540 | 50 | 328 | 0.0 | 0.0 | 0.00 | 0.00 | 0.00 | 90 | 1015.2 |
| 20260510120034 | 51 | 328 | 0.0 | 0.0 | 0.00 | 0.00 | 0.00 | 89 | 1015.0 |
| 20260510114533 | 51 | 328 | 0.0 | 0.0 | 0.00 | 0.00 | 0.00 | 88 | 1015.1 |
| 20260510113033 | 51 | 328 | 0.0 | 0.0 | 0.00 | 0.00 | 0.00 | 88 | 1015.0 |
| 20260510111531 | 52 | 327 | 0.0 | 0.0 | 0.00 | 0.00 | 0.00 | 86 | 1015.1 |
| 20260510110039 | 51 | 328 | 0.0 | 0.0 | 0.00 | 0.00 | 0.00 | 87 | 1014.8 |
| 20260510104529 | 51 | 328 | 0.0 | 0.0 | 0.00 | 0.00 | 0.00 | 87 | 1014.8 |
| 20260510103028 | 52 | 328 | 0.0 | 0.0 | 0.00 | 0.00 | 0.00 | 85 | 1014.8 |
| 20260510101533 | 52 | 333 | 0.0 | 0.0 | 0.00 | 0.00 | 0.00 | 87 | 1014.7 |
| 20260510100026 | 52 | 333 | 0.0 | 0.0 | 0.00 | 0.00 | 0.00 | 86 | 1014.8 |
| 20260510094526 | 52 | 333 | 0.0 | 0.0 | 0.00 | 0.00 | 0.00 | 88 | 1015.0 |
| 20260510093024 | 52 | 333 | 0.0 | 0.0 | 0.00 | 0.00 | 0.00 | 86 | 1014.9 |
| 20260510091527 | 53 | 333 | 0.0 | 0.0 | 0.00 | 0.00 | 0.00 | 84 | 1015.1 |
| 20260510090026 | 53 | 333 | 0.0 | 0.0 | 0.00 | 0.00 | 0.00 | 83 | 1015.0 |
| 20260510084519 | 53 | 333 | 0.0 | 0.0 | 0.00 | 0.00 | 0.00 | 83 | 1015.0 |
| 20260510083017 | 53 | 333 | 0.0 | 0.0 | 0.00 | 0.00 | 0.00 | 84 | 1015.0 |
| 20260510081516 | 53 | 333 | 0.0 | 0.0 | 0.00 | 0.00 | 0.00 | 84 | 1014.9 |
| 20260510080010 | 54 | 333 | 0.0 | 0.0 | 0.00 | 0.00 | 0.00 | 83 | 1014.9 |
| 20260510074507 | 54 | 333 | 0.0 | 0.0 | 0.00 | 0.00 | 0.00 | 80 | 1014.8 |
| 20260510073007 | 55 | 333 | 0.0 | 0.0 | 0.00 | 0.00 | 0.00 | 80 | 1014.6 |
| 20260510071503 | 55 | 333 | 0.0 | 0.0 | 0.00 | 0.00 | 0.00 | 79 | 1014.7 |
| 20260510070100 | 56 | 333 | 0.0 | 0.0 | 0.00 | 0.00 | 0.00 | 77 | 1014.8 |
| 20260510064601 | 56 | 333 | 0.0 | 0.0 | 0.00 | 0.00 | 0.00 | 76 | 1014.7 |
| 20260510063059 | 56 | 333 | 0.0 | 0.0 | 0.00 | 0.00 | 0.00 | 76 | 1014.8 |
| 20260510061559 | 56 | 333 | 0.0 | 0.0 | 0.00 | 0.00 | 0.00 | 76 | 1014.8 |
| 20260510060059 | 56 | 333 | 0.0 | 0.0 | 0.00 | 0.00 | 0.00 | 75 | 1014.8 |
| 20260510054558 | 57 | 333 | 0.0 | 0.0 | 0.00 | 0.00 | 0.00 | 75 | 1014.7 |
| 20260510053057 | 57 | 333 | 0.0 | 0.0 | 0.00 | 0.00 | 0.00 | 71 | 1014.7 |
| 20260510051602 | 58 | 333 | 0.0 | 0.0 | 0.00 | 0.00 | 0.00 | 72 | 1014.8 |
| 20260510050056 | 58 | 333 | 0.0 | 0.0 | 0.00 | 0.00 | 0.00 | 70 | 1015.0 |
| 20260510044555 | 59 | 333 | 0.0 | 0.0 | 0.00 | 0.00 | 0.00 | 72 | 1015.0 |
| 20260510043055 | 59 | 333 | 0.0 | 0.0 | 0.00 | 0.00 | 0.00 | 69 | 1015.1 |
| 20260510041555 | 60 | 333 | 0.0 | 0.0 | 0.00 | 0.00 | 0.00 | 69 | 1015.0 |
| 20260510040055 | 60 | 333 | 0.0 | 0.0 | 0.00 | 0.00 | 0.00 | 68 | 1014.9 |
| 20260510034553 | 61 | 333 | 0.0 | 0.0 | 0.00 | 0.00 | 0.00 | 66 | 1014.8 |
| 20260510033112 | 62 | 333 | 0.0 | 0.0 | 0.00 | 0.00 | 0.00 | 64 | 1014.7 |
| 20260510031552 | 63 | 333 | 0.0 | 0.0 | 0.00 | 0.00 | 0.00 | 63 | 1014.8 |
| 20260510030051 | 64 | 333 | 0.0 | 0.0 | 0.00 | 0.00 | 0.00 | 61 | 1014.8 |
| 20260510024549 | 65 | 333 | 0.0 | 0.0 | 0.00 | 0.00 | 0.00 | 59 | 1015.0 |
| 20260510023049 | 66 | 333 | 0.0 | 0.0 | 0.00 | 0.00 | 0.00 | 57 | 1015.0 |
| 20260510021547 | 67 | 337 | 0.0 | 1.0 | 0.00 | 0.00 | 0.00 | 54 | 1015.2 |
| 20260510020045 | 68 | 322 | 0.0 | 0.0 | 0.00 | 0.00 | 0.00 | 54 | 1015.4 |
| 20260510014544 | 68 | 352 | 0.0 | 2.0 | 0.00 | 0.00 | 0.00 | 52 | 1015.5 |
| 20260510013042 | 69 | 82 | 0.0 | 0.0 | 0.00 | 0.00 | 0.00 | 52 | 1015.5 |
| 20260510011541 | 69 | 136 | 0.0 | 0.0 | 0.00 | 0.00 | 0.00 | 52 | 1015.8 |
| 20260510010040 | 70 | 158 | 0.0 | 0.0 | 0.00 | 0.00 | 0.00 | 48 | 1016.2 |
| 20260510004537 | 70 | 169 | 0.0 | 0.0 | 0.00 | 0.00 | 0.00 | 48 | 1016.4 |
| 20260510003037 | 71 | 64 | 0.0 | 1.0 | 0.00 | 0.00 | 0.00 | 46 | 1016.5 |
| 20260510001534 | 73 | 191 | 0.0 | 1.0 | 0.00 | 0.00 | 0.00 | 46 | 1016.7 |
| 20260510000036 | 72 | 328 | 0.0 | 1.0 | 0.00 | 0.00 | 0.00 | 48 | 1016.9 |
| 20260509234539 | 73 | 148 | 0.0 | 1.0 | 0.00 | 0.00 | 0.00 | 46 | 1017.2 |
| 20260509233018 | 71 | 61 | 0.0 | 1.0 | 0.00 | 0.00 | 0.00 | 48 | 1017.5 |
| 20260509231518 | 72 | 230 | 1.0 | 6.0 | 0.00 | 0.00 | 0.00 | 46 | 1017.8 |
| 20260509230013 | 70 | 119 | 0.0 | 4.0 | 0.00 | 0.00 | 0.00 | 49 | 1018.1 |
| 20260509224603 | 72 | 217 | 0.0 | 2.0 | 0.00 | 0.00 | 0.00 | 48 | 1018.2 |
| 20260509224526 | 72 | 146 | 0.0 | 2.0 | 0.00 | 0.00 | 0.00 | 48 | 1018.3 |
| 20260509223102 | 70 | 232 | 0.0 | 3.0 | 0.00 | 0.00 | 0.00 | 51 | 1018.5 |
| 20260509221534 | 69 | 322 | 0.0 | 7.0 | 0.00 | 0.00 | 0.00 | 54 | 1018.6 |
| 20260509220032 | 70 | 80 | 0.0 | 3.0 | 0.00 | 0.00 | 0.00 | 53 | 1018.9 |
| 20260509214543 | 70 | 115 | 0.0 | 4.0 | 0.00 | 0.00 | 0.00 | 51 | 1018.9 |
| 20260509213029 | 71 | 188 | 1.0 | 4.0 | 0.00 | 0.00 | 0.00 | 48 | 1019.0 |
| 20260509211527 | 70 | 111 | 0.0 | 3.0 | 0.00 | 0.00 | 0.00 | 51 | 1019.1 |
| 20260509210026 | 69 | 301 | 0.0 | 3.0 | 0.00 | 0.00 | 0.00 | 53 | 1019.1 |
| 20260509204524 | 69 | 311 | 0.0 | 2.0 | 0.00 | 0.00 | 0.00 | 55 | 1019.3 |
| 20260509203026 | 68 | 48 | 0.0 | 4.0 | 0.00 | 0.00 | 0.00 | 53 | 1019.5 |
| 20260509201518 | 69 | 333 | 0.0 | 2.0 | 0.00 | 0.00 | 0.00 | 52 | 1019.6 |
| 20260509200016 | 68 | 319 | 0.0 | 4.0 | 0.00 | 0.00 | 0.00 | 53 | 1019.8 |
| 20260509194517 | 70 | 53 | 0.0 | 3.0 | 0.00 | 0.00 | 0.00 | 51 | 1019.8 |
| 20260509193016 | 71 | 288 | 0.0 | 4.0 | 0.00 | 0.00 | 0.00 | 49 | 1020.0 |
| 20260509191510 | 70 | 41 | 0.0 | 2.0 | 0.00 | 0.00 | 0.00 | 48 | 1020.0 |
| 20260509190010 | 67 | 8 | 0.0 | 3.0 | 0.00 | 0.00 | 0.00 | 54 | 1020.4 |
| 20260509184518 | 67 | 349 | 0.0 | 2.0 | 0.00 | 0.00 | 0.00 | 51 | 1020.5 |
| 20260509183007 | 70 | 60 | 1.0 | 4.0 | 0.00 | 0.00 | 0.00 | 48 | 1020.5 |
| 20260509181503 | 69 | 86 | 0.0 | 6.0 | 0.00 | 0.00 | 0.00 | 50 | 1020.8 |
| 20260509180116 | 68 | 127 | 0.0 | 3.0 | 0.00 | 0.00 | 0.00 | 53 | 1020.8 |
| 20260509174600 | 68 | 47 | 1.0 | 4.0 | 0.00 | 0.00 | 0.00 | 53 | 1020.8 |
| 20260509173109 | 66 | 123 | 0.0 | 3.0 | 0.00 | 0.00 | 0.00 | 56 | 1020.8 |
| 20260509171554 | 66 | 146 | 0.0 | 2.0 | 0.00 | 0.00 | 0.00 | 57 | 1021.0 |
| 20260509170053 | 63 | 193 | 0.0 | 2.0 | 0.00 | 0.00 | 0.00 | 62 | 1021.2 |
| 20260509164548 | 65 | 74 | 0.0 | 3.0 | 0.00 | 0.00 | 0.00 | 60 | 1021.2 |
| 20260509163044 | 63 | 149 | 0.0 | 1.0 | 0.00 | 0.00 | 0.00 | 63 | 1021.4 |
| 20260509161547 | 62 | 162 | 0.0 | 0.0 | 0.00 | 0.00 | 0.00 | 67 | 1021.5 |
| 20260509160037 | 59 | 21 | 0.0 | 2.0 | 0.00 | 0.00 | 0.00 | 70 | 1021.7 |
| 20260509154531 | 58 | 320 | 0.0 | 1.0 | 0.00 | 0.00 | 0.00 | 71 | 1021.9 |
| 20260509153032 | 57 | 198 | 0.0 | 1.0 | 0.00 | 0.00 | 0.00 | 75 | 1021.9 |
| 20260509151539 | 57 | 73 | 0.0 | 1.0 | 0.00 | 0.00 | 0.00 | 76 | 1022.0 |
| 20260509150022 | 56 | 80 | 0.0 | 1.0 | 0.00 | 0.00 | 0.00 | 76 | 1022.1 |